RH
99 97 94 93 95 99 99 91 91 87 97 95 90 91 87 90 96 99 98 96 99 100 100 100 100 98 94
100 97 99 98 98 92 89 86 73 77 79 79 89 98 93 89 96 84 92 100 99 92 95 99 99 98 90
96 94 94 92 84 79 89 79 72 66 64 62 65 74 81 88 90 91 86 85 86 90 94 95 95 95 99
88 88 90 90 81 64 61 60 59 60 50 60 53 55 68 58 67 86 92 93 96 98 93 90 89 91 96
85 86 71 60 57 60 54 53 63 58 49 37 45 46 48 48 45 42 48 80 90 92 93 92 92 89 86
59 57 60 60 62 58 69 66 71 62 50 51 50 47 52 57 58 54 48 30 37 70 85 87 91 96 95
53 57 65 70 67 75 68 66 66 65 61 50 61 60 64 66 72 73 74 45 40 38 46 49 60 69 76
61 68 71 76 76 73 75 77 73 71 66 62 66 65 60 71 78 78 88 93 95 90 89 94 92 89 88
44 41 39 42 46 51 72 78 77 75 79 79 78 69 75 81 80 86 79 90 80 81 79 91 91 84 85
50 47 44 53 49 54 68 72 88 90 92 86 84 77 73 85 83 72 71 79 82 91 92 97 90 90 89
45 46 56 63 70 72 68 71 84 87 95 95 89 87 87 86 75 80 85 76 80 81 79 75 74 96 92
46 52 59 67 76 79 80 84 89 87 94 95 96 94 93 90 88 81 73 66 77 84 75 75 82 93 100
51 59 65 71 80 89 86 81 84 91 96 100 99 99 98 94 95 94 95 84 75 84 64 65 82 84 90
55 64 70 78 82 80 84 92 91 85 78 90 92 97 96 96 93 97 94 95 67 63 71 72 76 83 95
54 58 69 74 79 84 87 90 95 90 85 77 83 89 92 94 99 98 92 88 72 76 83 83 80 82 83
45 53 64 73 80 84 86 90 91 89 88 86 90 90 89 85 78 90 88 86 81 86 92 97 92 76 70
48 53 59 67 74 82 85 90 92 90 84 86 88 92 97 93 81 87 85 81 85 88 84 85 89 80 73
Wind_Speed
5 3 2 2 2 2 3 3 5 3 3 4 4 6 7 9 10 12 12 14 18 19 17 19 20 16 11
5 2 1 2 1 3 4 4 6 7 6 5 3 5 4 6 7 6 7 9 8 9 11 10 7 5 5
4 3 1 1 4 4 5 4 3 5 4 6 6 5 5 4 4 4 3 3 3 3 4 5 6 7 7
4 3 2 2 2 3 2 2 2 2 3 3 5 5 6 5 5 3 2 2 2 3 2 3 4 6 8
7 5 5 2 1 2 3 3 0 4 6 5 3 3 2 5 7 6 4 2 3 4 4 3 3 6 8
5 4 5 4 1 2 2 2 1 4 9 4 4 4 3 5 7 8 5 3 5 5 6 6 6 6 7
6 5 4 3 1 1 2 2 2 6 7 1 3 2 4 4 6 9 6 3 2 4 5 6 7 8 9
4 4 3 3 1 0 2 3 3 1 4 2 5 4 6 1 3 7 6 5 6 4 2 3 4 5 6
3 2 1 2 3 4 4 3 1 1 4 4 4 10 3 4 2 2 3 5 4 5 2 2 3 4 7
3 2 1 3 2 2 4 3 2 1 2 6 4 8 3 2 2 6 2 1 4 3 3 2 4 9 10
2 2 2 3 2 1 1 3 5 2 1 4 4 3 4 5 7 2 2 7 8 8 8 10 9 6 9
3 3 5 5 5 5 5 5 6 7 7 7 4 4 6 7 6 5 13 13 5 6 10 10 10 10 10
5 5 6 6 7 8 9 5 4 5 7 7 8 9 10 9 11 13 12 8 8 1 10 16 15 14 16
7 6 7 8 7 7 6 6 8 8 4 5 8 10 12 15 17 21 18 10 10 19 15 14 11 10 12
10 11 10 10 10 8 9 9 12 12 12 6 7 11 15 16 20 20 21 21 17 15 14 18 16 14 15
11 12 13 13 13 11 12 13 15 15 14 11 9 11 14 15 18 23 19 19 16 13 14 18 26 24 22
15 15 15 15 15 15 14 15 17 17 16 13 12 11 7 6 8 13 20 18 15 18 21 22 27 29 24
Wind_Direction
156 155 216 212 303 39 14 36 14 15 15 12 8 18 5 21 37 41 46 59 74 84 115 138 148 167 190
167 143 357 356 153 24 75 50 40 37 26 13 355 38 15 348 26 47 54 66 85 97 113 120 135 170 214
151 155 164 350 118 98 103 94 29 7 13 40 34 31 27 16 4 23 39 66 68 99 145 177 190 197 190
145 168 157 158 100 79 139 8 320 359 16 32 31 26 33 28 19 6 16 59 95 94 174 205 219 223 225
158 161 143 126 73 8 342 336 33 24 11 348 358 10 20 346 339 332 321 267 226 222 224 232 240 243 246
139 146 131 134 342 358 9 12 344 335 358 76 52 57 38 358 345 339 328 265 242 236 238 238 238 246 256
142 146 150 128 153 54 348 353 326 327 338 182 30 20 343 345 355 359 7 358 310 267 260 257 253 254 258
121 127 135 134 184 318 305 326 303 104 351 312 328 338 336 325 19 18 29 33 34 21 354 323 296 276 267
112 133 185 211 253 244 224 289 213 237 352 344 338 338 4 110 80 32 360 15 12 3 328 271 219 265 250
176 187 127 121 175 207 200 213 196 199 353 348 352 358 333 215 306 333 336 322 311 321 324 337 282 254 249
190 183 168 180 199 234 263 214 208 190 320 348 331 354 321 313 308 295 321 325 302 298 298 292 278 289 288
225 214 214 216 234 267 282 258 253 242 236 274 266 291 309 304 277 294 296 317 285 306 297 319 298 292 281
240 228 236 256 257 267 278 263 313 278 270 263 261 264 263 259 281 295 320 297 312 146 324 308 295 297 300
247 248 241 244 259 272 254 253 275 284 288 248 262 255 263 269 274 278 285 284 280 303 311 302 298 294 285
255 247 249 258 262 258 262 263 259 281 297 302 260 272 273 277 276 275 281 284 295 309 312 306 303 299 288
251 251 252 256 255 254 255 257 264 276 285 294 295 294 295 290 264 267 275 282 298 301 299 296 295 296 296
257 257 255 258 253 253 255 257 264 273 281 286 286 278 265 274 277 262 275 289 295 290 293 294 290 296 300